Hourly Data Report for November 08, 2017

All times are specified in Local Standard Time (LST). Add 1 hour to adjust for Daylight Saving Time where and when it is observed.

DAUPHIN
MANITOBA

51°06'03.000" N
100°03'09.000" W
304.50 m
5040689
71036
YDN

Related Data

No related data is available for this station

Download Data

Hourly Data (November 2017)
Hourly Data Report for November 8, 2017
Temp Definition
°C
Dew Point Temp Definition
°C
Rel Hum Definition
%
Wind Dir Definition
10's deg

Wind Spd Definition
km/h
Visibility Definition
km
Stn Press Definition
kPa
Hmdx Definition


Wind Chill Definition


Weather Definition


TIME
00:00 Legend Double Dagger -7.3 -10.2 80 33 13 16.1 98.62   -13 Snow
01:00 Legend Double Dagger -7.6 -12.0 71 1 15 16.1 98.65   -14 LegendNANA
02:00 Legend Double Dagger -8.2 -14.0 64 2 15 16.1 98.70   -15 LegendNANA
03:00 Legend Double Dagger -8.7 -14.0 66 2 13 16.1 98.73   -15 Snow
04:00 Legend Double Dagger -9.2 -15.3 62 35 15 16.1 98.77   -16 LegendNANA
05:00 Legend Double Dagger -9.7 -15.3 64 35 15 16.1 98.80   -16 Snow
06:00 Legend Double Dagger -10.3 -14.8 70 35 21 16.1 98.79   -18 Snow
07:00 Legend Double Dagger -10.3 -16.2 62 33 13 16.1 98.81   -17 LegendNANA
08:00 Legend Double Dagger -10.6 -16.3 63 33 9 16.1 98.85   -16 LegendNANA
09:00 Legend Double Dagger -10.8 -16.0 66 34 8 16.1 98.89   -15 LegendNANA
10:00 Legend Double Dagger -10.8 -15.6 68 35 11 16.1 98.91   -17 LegendNANA
11:00
12:00 Legend Double Dagger -11.5 -15.1 75 35 9 16.1 98.91   -17 LegendNANA
13:00 Legend Double Dagger -10.9 -15.4 70 5 8 16.1 98.84   -16 LegendNANA
14:00 Legend Double Dagger -10.7 -15.5 68 LegendMM 4 16.1 98.82   -13 LegendNANA
15:00 Legend Double Dagger -11.2 -15.4 72 6 4 16.1 98.76   -14 LegendNANA
16:00 Legend Double Dagger -11.4 -15.6 72 LegendMM 5 16.1 98.73   -15 LegendNANA
17:00 Legend Double Dagger -12.9 -17.3 70 29 21 16.1 98.76   -22 LegendNANA
18:00 Legend Double Dagger -13.6 -17.8 71 28 24 16.1 98.84   -23 LegendNANA
19:00 Legend Double Dagger -14.9 -18.9 72 27 18 16.1 98.84   -24 LegendNANA
20:00 Legend Double Dagger -15.7 -19.3 74 28 17 16.1 98.85   -24 LegendNANA
21:00 Legend Double Dagger -15.8 -19.1 76 28 22 16.1 98.90   -26 LegendNANA
22:00 Legend Double Dagger -15.6 -18.9 76 27 17 16.1 98.91   -24 LegendNANA
23:00 Legend Double Dagger -14.2 -17.7 75 28 21 16.1 98.92   -23 LegendNANA

Notes on Data Quality.

Legend

  • E = Estimated
  • M = Missing
  • NA = Not Available
  • ‡ = Partner data that is not subject to review by the National Climate Archives
Date modified: